FALCON 9 R/B, 41381

Orbit data source: Space-Track

FALCON 9 R/B, 41381 is space debris in HEO originally from a launch on Fri, 04 Mar 2016 UTC launched from the Air Force Eastern Test Range (AFETR). Debris objects in space refer to the collection of defunct objects orbiting the Earth. Examples of debris include non-operational satellites, rocket bodies, and fragments generated from explosions, collisions, or faulty payload assembly.

Loading next visibility...
Identifier
41381, 2016-013B
Orbit
HEO
Country
Flag of USUS
Related business
Manufacturer
SpaceX
Mission
Spacecraft
Bus & Motor
F9ST2, Unknown motor
Mass
~4,000 kg wet, ~4,000 kg dry
Launch date (UTC)
2016-03-04 (10 years ago)
Launch vehicle
Unknown
Launch site
Air Force Eastern Test Range (AFETR)
Object type
Payload
Rocket body
Debris
Shape & HBR
Cyl, 7.8 m
Radar Cross Section
39.980 m², Large (>1 m²)

Expand to show TLE details & history
Last TLE update: 2 days ago

TLE from 2 days ago
0 FALCON 9 R/B
1 41381U 16013B   26171.16275798 -.00000303  00000-0  78467-4 0  9993
2 41381  27.4155 249.2000 7404591 314.4958   5.1867  2.05347163 75374
Epoch: 2026-06-20T03:54Z
TLE epoch observation values (Epoch: 2026-06-20T03:54:22.289Z)
Latitude
-0.00002°
Longitude
-77.72597°
Altitude
1,414.663 km
Speed
9.33 km/s
True Right ascension
16h 36m 59s
True Declination
0° 00' 00"
Sunlit
Object was in full shadow at epoch
Visualization orbit readout
Latitude
Unknown
Longitude
Unknown
Altitude
Unknown
Speed
Unknown
Apparent Right ascension
Unknown
Apparent Declination
Unknown
Sunlit
N/A
Visualization observer readout
Local Sidereal Time
23:08:38
Azimuth
Unknown
Elevation
Unknown
Doppler factor
Unknown
Orbital elements
Apogee altitude
39,134.952 km
Perigee altitude
408.87 km
Semi-major axis
26,150.048 km
Eccentricity
0.74046
Inclination
27.4155°
RAAN
249.2°
Arg. of periapsis
314.4958°
True anomaly
46.85112°
Mean anomaly
5.1867°
Eccentric anomaly
18.99663°
Mean motion
0.51326 °/min
Orbital period
701.4 mins
BSTAR
0.000078467
Loading maneuver chart data...
Computing Atmospheric mass density...
Loading historical data...
Loading historical data...
Loading historical data...
Loading historical data...
Loading historical data...
Loading historical data...
Loading historical data...
Other satellites on launch #13 in the year 2016 (2016-03-04 UTC)

Documentation

Showing up to 5 results
|